GFSNE_925_temp_135.txt.gz
Temp
7 8 9 11 14 15 15 15 15 15 15 14 14 15 17 15 15 15 16 17 16 15 17 18 19 17 16 16 16 16 15 14 14 13 13 13 12 13
6 8 9 10 12 13 14 15 14 15 14 14 13 16 17 15 17 17 16 18 18 14 15 16 17 16 17 15 16 15 15 14 14 13 13 13 13 13
7 8 9 10 11 11 13 14 14 13 14 15 14 15 14 15 15 14 16 18 17 14 14 14 15 16 16 15 17 15 15 15 14 13 13 13 13 12
1 2 2 6 8 11 12 13 13 14 14 15 14 14 15 15 14 14 16 18 16 16 17 15 16 16 16 15 17 16 16 15 14 14 13 13 13 13
-2 -0 -1 -0 1 3 6 8 11 13 13 15 15 15 14 14 14 14 15 15 15 17 16 16 15 15 15 16 16 16 15 15 15 14 13 13 13 13
-3 -3 -2 -3 -2 -1 -1 1 4 7 12 13 13 14 15 14 14 14 14 14 13 15 15 14 14 14 13 14 14 14 15 15 14 13 13 13 13 13
-5 -4 -4 -3 -3 -4 -3 -3 -1 2 3 6 10 12 13 12 11 10 14 14 14 13 13 13 13 13 13 13 13 13 13 14 14 13 13 12 13 12
-6 -5 -5 -5 -4 -5 -5 -5 -5 -4 -3 -2 -2 -1 -2 -3 -2 1 4 11 13 9 9 12 12 12 11 11 12 12 12 13 13 13 13 12 12 12
-7 -7 -6 -6 -6 -6 -5 -6 -6 -5 -6 -5 -5 -5 -5 -5 -4 -1 1 2 1 1 3 7 8 9 9 8 10 11 12 12 12 12 11 11 11 11
-8 -8 -8 -7 -7 -6 -6 -6 -7 -7 -6 -6 -6 -7 -6 -6 -5 -3 -2 -0 1 0 0 1 2 2 2 2 2 3 6 8 8 9 10 10 10 10
-10 -8 -9 -9 -8 -8 -7 -8 -8 -7 -7 -7 -7 -7 -6 -7 -5 -4 -5 -3 1 -3 -4 -3 -1 0 1 1 0 1 1 1 3 4 4 5 7 8
-11 -11 -10 -10 -10 -10 -10 -10 -10 -9 -9 -7 -6 -7 -7 -6 -6 -6 -7 -5 -5 -4 -6 -5 -4 -3 0 -0 -0 -0 0 0 -1 1 2 2 3 4
-12 -12 -12 -11 -11 -12 -12 -12 -12 -11 -10 -9 -9 -9 -9 -8 -8 -7 -7 -7 -7 -6 -7 -7 -5 -5 -4 -3 -2 -2 -2 -1 -2 -1 -0 -1 -0 1
-13 -13 -13 -13 -13 -13 -13 -13 -13 -12 -12 -11 -10 -10 -10 -10 -9 -9 -8 -8 -8 -8 -8 -7 -6 -6 -6 -4 -2 -3 -3 -3 -3 -3 -3 -2 -2 -1
-14 -14 -14 -14 -15 -15 -14 -15 -14 -14 -13 -13 -12 -12 -11 -11 -10 -10 -9 -9 -8 -8 -8 -9 -8 -8 -6 -4 -4 -4 -5 -5 -5 -4 -4 -4 -4 -4
-14 -14 -15 -15 -15 -15 -15 -15 -16 -16 -15 -14 -14 -13 -13 -12 -11 -10 -10 -10 -8 -9 -8 -9 -9 -8 -6 -6 -5 -5 -5 -5 -5 -5 -5 -5 -5 -5
-14 -14 -14 -14 -15 -15 -15 -16 -16 -16 -16 -15 -15 -14 -14 -13 -12 -11 -11 -10 -10 -9 -9 -9 -8 -8 -8 -7 -6 -6 -5 -5 -5 -5 -5 -4 -5 -6
-14 -14 -15 -15 -15 -15 -15 -16 -16 -17 -17 -16 -16 -16 -15 -14 -13 -12 -12 -12 -11 -10 -10 -9 -9 -7 -6 -6 -8 -7 -6 -6 -6 -6 -5 -5 -4 -6
-14 -14 -15 -15 -15 -15 -16 -16 -16 -17 -17 -17 -17 -17 -17 -15 -14 -14 -13 -13 -12 -11 -10 -10 -9 -9 -7 -6 -7 -8 -8 -7 -6 -5 -5 -5 -5 -7
-14 -14 -14 -15 -15 -15 -16 -16 -17 -17 -17 -17 -17 -17 -18 -16 -15 -15 -14 -15 -14 -12 -11 -11 -10 -10 -10 -9 -8 -8 -9 -9 -7 -6 -6 -7 -7 -8
-15 -15 -15 -15 -15 -15 -16 -17 -17 -17 -18 -18 -18 -18 -18 -17 -16 -16 -16 -16 -15 -13 -12 -12 -12 -12 -10 -9 -7 -7 -8 -9 -9 -8 -7 -6 -6 -6
-17 -17 -17 -17 -17 -16 -16 -16 -16 -16 -17 -17 -18 -18 -18 -18 -17 -17 -17 -16 -15 -15 -14 -13 -13 -12 -10 -9 -8 -8 -8 -8 -9 -9 -9 -8 -7 -5
-19 -19 -18 -18 -18 -18 -18 -18 -17 -17 -17 -18 -18 -18 -19 -18 -18 -18 -17 -17 -16 -16 -15 -14 -13 -12 -11 -10 -9 -8 -9 -8 -8 -8 -8 -9 -9 -8

GFSNE_925_temp_138.txt.gz
Temp
4 6 8 9 10 12 13 14 17 17 17 17 16 16 16 16 17 17 16 16 17 17 18 18 17 17 16 16 17 18 17 16 15 15 14 14 13 12
5 6 8 9 11 12 12 13 14 15 15 16 16 16 15 15 15 15 16 16 15 16 16 18 18 15 15 15 16 15 16 16 15 15 15 14 14 13
3 3 5 7 9 12 11 11 13 15 15 15 15 15 14 14 15 15 13 14 15 15 16 18 19 14 14 15 15 15 15 15 15 15 15 15 14 13
-1 -0 0 3 4 5 6 7 10 12 13 16 15 13 13 14 13 13 13 15 15 16 16 17 18 16 14 14 15 16 15 15 14 14 14 14 14 14
-2 -2 -2 -1 0 1 2 3 5 8 9 12 14 14 14 13 13 14 15 15 15 15 15 15 15 16 13 13 14 14 15 14 15 15 14 14 14 14
-4 -4 -3 -3 -3 -2 -1 -0 2 4 6 7 9 12 11 10 11 10 12 14 15 15 14 14 15 15 13 14 14 13 14 15 15 14 14 14 14 13
-5 -5 -5 -4 -4 -4 -3 -2 -1 -0 0 -0 0 0 -2 -1 -1 -1 4 6 8 7 12 13 13 13 15 13 13 13 13 13 14 13 14 13 14 13
-6 -5 -6 -5 -5 -5 -5 -5 -5 -3 -3 -2 -4 -3 -4 -4 -4 -2 2 4 7 5 5 7 9 9 9 9 11 12 12 13 13 13 13 13 13 13
-7 -7 -7 -7 -5 -4 -5 -6 -6 -6 -6 -4 -5 -5 -5 -6 -4 -2 -2 1 0 -2 -0 4 3 4 2 3 4 6 8 8 9 9 10 11 12 12
-9 -9 -8 -8 -8 -6 -5 -6 -6 -7 -7 -6 -6 -6 -6 -6 -5 -4 -3 -1 -0 -2 -2 0 -1 0 2 1 1 1 2 3 4 5 5 6 7 9
-9 -10 -10 -10 -9 -8 -7 -7 -6 -7 -7 -7 -6 -7 -6 -7 -6 -4 -5 -3 -1 -3 -6 -5 -3 -3 -0 -0 -0 -1 -0 0 1 1 1 1 3 5
-9 -10 -11 -10 -10 -10 -10 -9 -8 -7 -7 -7 -7 -7 -7 -7 -7 -6 -5 -3 -4 -3 -6 -6 -5 -4 -2 -1 -1 -2 -1 -1 -1 -1 0 0 1 2
-10 -10 -11 -11 -11 -11 -11 -11 -10 -9 -8 -8 -7 -7 -7 -7 -8 -7 -7 -6 -5 -4 -7 -6 -4 -5 -5 -4 -3 -3 -3 -3 -3 -2 -2 -1 -1 0
-11 -11 -12 -12 -12 -12 -12 -12 -11 -10 -9 -8 -8 -9 -8 -8 -8 -8 -8 -7 -7 -7 -7 -7 -6 -6 -4 -2 -2 -3 -4 -4 -4 -4 -4 -3 -3 -2
-12 -12 -12 -12 -12 -12 -12 -12 -12 -11 -10 -10 -9 -9 -9 -9 -8 -8 -7 -7 -6 -7 -7 -7 -7 -7 -5 -4 -3 -3 -4 -4 -4 -4 -4 -4 -4 -4
-11 -11 -11 -11 -11 -11 -12 -12 -12 -12 -11 -11 -11 -11 -10 -9 -9 -8 -8 -7 -7 -7 -7 -7 -8 -7 -6 -5 -5 -4 -4 -4 -4 -4 -5 -4 -4 -5
-10 -10 -10 -10 -11 -11 -11 -12 -12 -12 -12 -12 -12 -12 -11 -10 -10 -9 -9 -9 -8 -7 -7 -8 -8 -7 -6 -6 -5 -5 -5 -5 -5 -5 -5 -4 -4 -5
-10 -10 -11 -11 -11 -11 -12 -12 -12 -13 -13 -13 -13 -13 -12 -11 -11 -10 -10 -10 -9 -9 -8 -7 -7 -7 -6 -5 -6 -6 -6 -6 -6 -5 -5 -4 -3 -5
-10 -10 -11 -11 -11 -11 -12 -12 -13 -13 -14 -13 -13 -13 -14 -12 -12 -12 -11 -11 -11 -10 -9 -8 -8 -8 -7 -7 -6 -7 -7 -7 -7 -5 -5 -5 -4 -6
-11 -11 -12 -12 -11 -12 -12 -13 -13 -13 -14 -14 -14 -14 -14 -13 -13 -13 -12 -13 -12 -11 -10 -9 -9 -9 -10 -9 -8 -7 -7 -7 -7 -7 -5 -5 -5 -6
-13 -13 -13 -13 -13 -13 -13 -13 -14 -14 -14 -14 -14 -14 -15 -14 -14 -14 -13 -14 -13 -12 -11 -10 -10 -11 -10 -9 -7 -6 -6 -7 -8 -8 -8 -6 -5 -4
-15 -15 -14 -15 -15 -15 -15 -15 -14 -14 -14 -14 -15 -15 -15 -15 -15 -14 -14 -14 -13 -13 -12 -12 -11 -11 -10 -9 -8 -7 -6 -6 -7 -8 -8 -8 -7 -5
-17 -17 -16 -16 -16 -17 -17 -16 -16 -16 -15 -15 -15 -15 -16 -15 -15 -15 -15 -15 -14 -14 -13 -13 -13 -11 -10 -9 -9 -8 -7 -7 -7 -7 -7 -8 -8 -8

GFSNE_925_temp_141.txt.gz
Temp
4 5 5 6 7 9 10 12 12 14 16 18 18 18 17 17 18 17 17 18 18 18 18 18 18 18 16 16 16 16 16 17 17 17 16 16 14 13
4 5 5 6 8 9 11 12 13 14 13 16 18 18 18 16 17 17 17 16 15 16 17 17 17 17 17 16 16 16 15 16 15 16 17 16 16 14
0 1 2 3 6 8 10 11 12 13 13 13 15 16 16 16 15 16 17 14 14 15 14 15 16 16 16 17 16 14 15 15 15 15 15 16 16 15
-2 -2 -2 -0 1 3 4 6 8 10 11 12 12 14 15 15 15 14 13 15 13 13 14 16 16 16 15 16 14 14 14 14 14 14 15 15 15 14
-4 -3 -3 -3 -2 -1 1 3 5 8 8 10 10 10 12 8 10 13 13 13 13 13 14 15 16 15 15 14 13 13 13 13 14 13 14 14 15 14
-5 -4 -4 -4 -4 -3 -3 -1 1 4 4 6 5 2 1 1 3 2 5 6 8 10 10 12 13 14 13 13 12 12 12 12 13 13 13 13 14 14
-6 -6 -5 -4 -4 -4 -4 -4 -2 -1 -0 -0 0 -1 -2 -1 -1 0 2 5 3 3 5 6 8 5 8 8 7 9 13 13 10 12 11 12 12 13
-7 -7 -7 -6 -4 -4 -5 -5 -5 -4 -4 -3 -4 -3 -4 -4 -3 -1 -0 2 4 1 2 3 3 4 1 1 2 4 7 10 10 10 8 8 10 11
-9 -8 -8 -8 -6 -5 -5 -5 -5 -5 -6 -5 -5 -5 -5 -5 -4 -2 -1 0 -2 -4 -1 3 1 0 -0 1 0 3 3 4 5 5 6 7 7 8
-9 -10 -9 -9 -8 -7 -6 -5 -6 -6 -6 -6 -6 -6 -6 -6 -4 -3 -1 -1 -2 -3 -4 -1 -3 -2 -1 -1 -1 -0 0 2 3 2 1 2 4 5
-10 -9 -10 -10 -9 -8 -8 -7 -6 -7 -6 -6 -6 -6 -6 -6 -6 -5 -4 -2 -1 -3 -6 -5 -3 -3 -2 -2 -1 -1 -0 -1 -2 -1 1 1 1 2
-9 -10 -10 -10 -10 -10 -9 -8 -7 -7 -7 -6 -7 -7 -7 -7 -7 -6 -6 -5 -4 -2 -6 -5 -3 -4 -2 -2 -2 -2 -2 -2 -1 -1 -1 -0 -0 1
-9 -10 -10 -10 -10 -10 -10 -9 -8 -8 -7 -7 -7 -7 -7 -7 -7 -7 -7 -6 -6 -5 -7 -6 -4 -5 -3 -2 -2 -2 -3 -3 -3 -3 -2 -2 -1 -1
-10 -10 -10 -10 -10 -10 -10 -10 -9 -9 -8 -8 -8 -8 -8 -8 -7 -7 -7 -6 -6 -7 -7 -7 -6 -6 -5 -3 -2 -3 -3 -3 -3 -3 -4 -3 -3 -2
-9 -9 -9 -9 -9 -10 -10 -10 -10 -10 -9 -9 -9 -9 -8 -8 -7 -7 -7 -7 -5 -6 -6 -7 -7 -7 -5 -4 -4 -4 -4 -3 -4 -4 -4 -4 -4 -4
-8 -8 -8 -8 -9 -9 -9 -10 -10 -10 -10 -10 -10 -10 -9 -9 -8 -8 -8 -7 -6 -6 -6 -6 -7 -7 -6 -5 -5 -4 -4 -4 -5 -4 -4 -4 -3 -4
-8 -8 -8 -8 -8 -9 -9 -10 -10 -11 -10 -10 -10 -10 -10 -9 -9 -9 -8 -8 -8 -7 -7 -7 -7 -6 -6 -5 -5 -5 -5 -5 -5 -5 -5 -4 -3 -4
-8 -8 -8 -8 -8 -9 -9 -10 -10 -11 -11 -11 -11 -11 -11 -10 -10 -10 -9 -10 -9 -9 -8 -7 -7 -7 -7 -6 -6 -6 -6 -6 -5 -6 -5 -4 -3 -4
-9 -9 -9 -9 -9 -9 -10 -10 -10 -11 -12 -11 -12 -12 -12 -11 -11 -11 -10 -11 -11 -10 -9 -8 -8 -8 -8 -8 -8 -8 -7 -7 -6 -6 -6 -6 -4 -4
-10 -10 -10 -10 -11 -11 -11 -12 -12 -12 -12 -12 -12 -13 -13 -13 -12 -12 -12 -12 -12 -11 -10 -9 -9 -9 -10 -9 -9 -8 -7 -7 -6 -6 -6 -7 -6 -5
-12 -12 -12 -12 -12 -12 -13 -13 -13 -13 -13 -13 -13 -13 -14 -14 -13 -13 -13 -13 -13 -12 -11 -11 -11 -11 -10 -9 -8 -7 -7 -7 -7 -7 -7 -7 -6 -5
-13 -13 -13 -14 -14 -14 -14 -14 -14 -14 -14 -14 -14 -14 -14 -14 -14 -14 -14 -14 -13 -13 -13 -12 -12 -11 -11 -10 -9 -8 -8 -7 -7 -7 -7 -7 -7 -6
-15 -15 -15 -15 -15 -16 -16 -16 -16 -16 -15 -15 -15 -15 -15 -15 -14 -15 -14 -14 -14 -14 -14 -14 -13 -13 -12 -11 -10 -9 -9 -8 -7 -6 -6 -6 -7 -7

GFSNE_925_temp_144.txt.gz
Temp
3 4 5 5 6 6 7 8 9 10 11 14 16 17 17 17 17 18 18 18 19 19 19 19 19 18 18 18 17 17 17 17 16 16 16 16 16 15
0 2 2 3 5 5 6 8 9 10 10 13 14 15 15 15 16 17 17 17 17 17 18 17 17 15 17 17 16 16 17 17 16 16 16 16 16 15
-2 -2 -2 0 1 3 4 6 8 9 10 12 13 14 14 12 13 15 16 16 16 15 15 14 13 13 14 14 14 14 15 15 15 15 15 15 15 15
-3 -4 -3 -3 -2 -1 1 3 4 7 8 11 13 11 10 10 12 11 11 11 12 12 12 12 13 13 13 14 15 15 15 16 15 14 14 14 14 15
-5 -4 -4 -4 -4 -3 -3 -1 1 4 4 7 5 3 4 3 5 7 8 7 8 7 8 10 11 12 12 13 14 10 11 13 13 13 14 13 14 14
-6 -6 -4 -4 -4 -4 -4 -3 -2 -1 0 1 -1 -1 -1 -1 1 0 3 4 5 5 4 4 4 5 5 8 12 9 9 12 13 12 11 11 12 12
-7 -7 -6 -4 -5 -5 -5 -5 -4 -3 -3 -3 -3 -3 -4 -3 -2 -1 1 3 2 1 3 2 1 2 1 2 3 6 6 6 10 10 9 11 12 10
-9 -9 -8 -7 -5 -5 -5 -5 -5 -5 -5 -4 -5 -5 -5 -5 -3 -2 -1 1 2 0 -0 0 0 -0 0 -0 0 0 3 2 3 6 5 7 11 11
-10 -10 -9 -8 -7 -6 -6 -6 -6 -6 -6 -6 -6 -6 -6 -6 -4 -3 -1 -2 -3 -5 -3 -1 -2 -1 -1 -1 -1 -1 0 0 1 3 3 3 5 7
-9 -10 -9 -9 -8 -8 -7 -7 -7 -6 -6 -6 -6 -6 -6 -6 -5 -5 -4 -2 -3 -5 -5 -3 -3 -3 -2 -2 -2 -2 -2 -2 -1 -1 -0 1 2 3
-10 -9 -9 -9 -8 -8 -8 -8 -8 -7 -7 -7 -7 -7 -7 -6 -7 -6 -6 -5 -3 -6 -6 -5 -4 -4 -2 -2 -2 -2 -2 -2 -3 -2 -2 -1 0 1
-9 -9 -8 -9 -9 -9 -9 -9 -9 -8 -8 -8 -8 -8 -7 -7 -7 -7 -6 -6 -6 -6 -7 -7 -5 -5 -4 -2 -2 -3 -3 -3 -2 -3 -3 -3 -1 -0
-9 -9 -8 -8 -9 -9 -9 -9 -9 -9 -9 -9 -9 -8 -8 -8 -7 -7 -7 -7 -6 -7 -7 -6 -6 -7 -5 -4 -3 -3 -3 -3 -4 -3 -3 -3 -3 -3
-9 -8 -8 -8 -9 -9 -10 -10 -10 -10 -10 -10 -10 -10 -9 -9 -8 -8 -7 -7 -6 -6 -6 -7 -7 -7 -7 -5 -5 -4 -4 -4 -5 -5 -4 -4 -4 -3
-8 -8 -8 -8 -9 -9 -9 -10 -11 -10 -10 -11 -11 -11 -10 -9 -9 -9 -9 -8 -7 -8 -7 -7 -7 -7 -6 -6 -6 -5 -5 -5 -5 -5 -5 -5 -4 -4
-8 -8 -8 -8 -9 -9 -9 -10 -11 -11 -11 -11 -11 -11 -11 -10 -10 -10 -10 -10 -9 -10 -9 -8 -8 -7 -7 -7 -6 -7 -7 -6 -6 -6 -5 -5 -4 -4
-8 -9 -9 -9 -9 -9 -10 -10 -11 -11 -11 -11 -12 -12 -12 -11 -11 -11 -11 -11 -11 -11 -10 -9 -9 -8 -8 -9 -8 -9 -8 -8 -8 -7 -6 -6 -5 -4
-9 -10 -10 -10 -10 -10 -11 -11 -11 -12 -12 -12 -12 -13 -13 -13 -12 -12 -12 -12 -12 -12 -10 -10 -10 -10 -11 -10 -9 -10 -9 -9 -8 -8 -6 -6 -6 -6
-10 -11 -11 -11 -11 -11 -12 -12 -13 -12 -12 -12 -13 -13 -14 -13 -13 -13 -13 -13 -13 -13 -11 -11 -11 -11 -12 -13 -11 -10 -9 -9 -8 -7 -7 -6 -7 -7
-11 -12 -12 -12 -13 -13 -14 -14 -14 -14 -14 -14 -13 -13 -14 -14 -14 -14 -14 -14 -14 -13 -13 -12 -12 -12 -12 -12 -11 -10 -9 -9 -9 -8 -8 -7 -7 -7
-13 -13 -13 -14 -14 -14 -15 -15 -15 -15 -15 -14 -14 -15 -15 -15 -14 -14 -14 -14 -14 -14 -14 -14 -14 -14 -13 -12 -12 -12 -11 -10 -9 -9 -8 -8 -8 -7
-15 -15 -15 -15 -16 -16 -16 -17 -17 -16 -16 -16 -16 -16 -16 -16 -15 -15 -15 -15 -15 -15 -15 -15 -15 -14 -14 -13 -13 -13 -12 -11 -10 -9 -9 -7 -7 -8
-16 -16 -17 -17 -17 -18 -18 -19 -18 -18 -18 -18 -18 -18 -18 -17 -16 -16 -16 -15 -15 -16 -16 -15 -15 -15 -15 -14 -14 -13 -12 -12 -11 -10 -9 -8 -7 -7

GFSNE_925_temp_147.txt.gz
Temp
1 2 3 4 4 5 6 6 6 7 9 10 11 13 13 14 14 14 15 16 16 17 16 16 16 17 19 19 19 18 18 18 16 16 16 16 16 15
-2 -2 -1 1 2 4 5 5 6 6 7 10 10 11 12 12 12 13 13 13 13 13 13 14 15 15 16 17 17 18 18 18 18 18 17 17 16 16
-3 -3 -3 -2 -1 0 2 3 5 6 8 10 10 10 9 10 10 10 10 11 7 8 12 12 11 12 13 14 15 14 15 15 15 16 15 15 15 14
-5 -3 -4 -4 -3 -3 -2 0 2 4 5 9 4 4 4 5 5 5 5 7 9 5 4 10 10 10 11 12 12 12 13 13 13 14 14 14 14 15
-6 -6 -4 -4 -4 -4 -3 -2 -1 1 1 1 1 -1 1 1 2 3 3 2 4 6 4 6 4 4 4 4 6 7 8 13 12 11 12 12 13 13
-8 -7 -5 -4 -5 -5 -5 -4 -3 -3 -2 -2 -3 -3 -3 -2 -1 -1 1 1 1 2 1 2 3 3 4 3 3 2 3 4 7 9 10 13 12 12
-9 -8 -7 -6 -5 -5 -5 -5 -5 -4 -4 -4 -4 -4 -5 -4 -3 -2 -0 1 0 -1 -1 -0 -0 1 -0 1 0 1 2 2 2 4 6 7 9 9
-10 -9 -8 -7 -7 -6 -6 -6 -6 -6 -6 -5 -6 -6 -6 -6 -4 -3 -2 -1 -2 -3 -2 -3 -2 -2 -1 -2 -2 -1 0 0 1 0 1 5 6 6
-9 -9 -9 -8 -8 -8 -7 -7 -7 -6 -7 -7 -7 -7 -7 -7 -6 -6 -4 -4 -5 -7 -4 -3 -3 -3 -2 -3 -3 -3 -2 -2 -1 -0 1 0 1 4
-9 -9 -9 -8 -8 -8 -9 -9 -8 -8 -7 -8 -7 -7 -7 -7 -7 -7 -6 -4 -4 -6 -5 -4 -6 -4 -3 -3 -3 -3 -3 -3 -3 -3 -3 -1 0 1
-8 -8 -9 -9 -8 -9 -9 -10 -10 -9 -9 -9 -8 -8 -8 -8 -7 -7 -7 -7 -6 -7 -7 -6 -7 -6 -4 -3 -3 -3 -3 -4 -4 -4 -3 -3 -2 -1
-8 -8 -8 -8 -9 -9 -10 -10 -11 -10 -10 -10 -9 -9 -9 -8 -8 -8 -8 -7 -7 -8 -7 -7 -7 -7 -6 -4 -4 -4 -4 -4 -4 -4 -4 -4 -3 -3
-8 -8 -8 -8 -9 -10 -10 -10 -11 -11 -11 -11 -11 -11 -10 -10 -9 -9 -8 -8 -9 -8 -8 -7 -7 -8 -7 -6 -5 -5 -5 -5 -5 -5 -4 -4 -4 -4
-8 -8 -8 -9 -9 -10 -11 -11 -11 -12 -12 -12 -12 -12 -12 -11 -10 -10 -9 -9 -9 -9 -8 -8 -8 -9 -8 -7 -7 -7 -7 -6 -6 -6 -6 -5 -4 -4
-8 -8 -9 -9 -10 -11 -11 -12 -12 -12 -13 -13 -13 -13 -12 -12 -12 -11 -11 -11 -10 -10 -10 -10 -9 -9 -10 -10 -10 -9 -9 -8 -7 -7 -7 -6 -5 -4
-9 -9 -10 -10 -11 -11 -12 -12 -12 -12 -13 -13 -13 -13 -13 -13 -13 -12 -13 -13 -13 -12 -11 -11 -10 -11 -11 -11 -10 -11 -10 -10 -9 -8 -8 -7 -6 -6
-10 -11 -11 -11 -12 -12 -13 -13 -13 -13 -13 -13 -14 -14 -14 -14 -13 -13 -14 -14 -14 -13 -13 -12 -12 -12 -12 -12 -11 -11 -11 -11 -10 -9 -8 -8 -7 -7
-11 -12 -12 -13 -13 -14 -14 -14 -14 -14 -14 -14 -14 -14 -14 -14 -14 -14 -14 -14 -14 -14 -14 -13 -13 -14 -14 -13 -12 -12 -12 -11 -10 -10 -9 -9 -8 -7
-13 -13 -13 -14 -14 -15 -15 -15 -15 -15 -15 -15 -15 -15 -15 -15 -15 -15 -15 -15 -15 -14 -14 -14 -14 -14 -15 -15 -14 -13 -12 -12 -12 -11 -10 -10 -9 -9
-14 -14 -15 -15 -15 -16 -16 -16 -16 -16 -16 -16 -16 -16 -16 -16 -16 -15 -15 -16 -15 -15 -15 -15 -15 -15 -15 -15 -15 -14 -13 -13 -12 -12 -11 -11 -10 -9
-15 -16 -16 -17 -17 -17 -17 -17 -17 -17 -17 -18 -18 -18 -17 -17 -17 -16 -16 -16 -16 -16 -16 -16 -15 -16 -15 -15 -15 -15 -14 -13 -13 -12 -12 -11 -10 -9
-16 -17 -17 -18 -18 -18 -19 -19 -19 -19 -19 -19 -19 -19 -19 -18 -18 -17 -16 -17 -16 -16 -16 -16 -16 -16 -16 -16 -15 -15 -15 -14 -13 -12 -11 -11 -9 -8
-17 -18 -18 -19 -19 -20 -20 -20 -20 -20 -21 -20 -20 -20 -20 -20 -19 -18 -17 -17 -17 -17 -17 -17 -17 -17 -17 -16 -16 -16 -15 -14 -13 -13 -12 -10 -10 -9

GFSNE_925_temp_150.txt.gz
Temp
-3 -2 -0 1 2 3 4 5 6 6 8 9 9 10 10 10 10 11 11 12 14 15 16 16 15 14 14 14 14 15 17 17 18 18 16 16 16 15
-4 -3 -3 -2 -1 1 2 4 5 6 6 9 9 7 8 8 7 8 7 9 9 10 13 15 14 14 14 13 13 13 14 15 16 17 18 18 16 15
-5 -4 -4 -3 -3 -2 -0 1 3 4 7 7 5 4 4 6 5 5 4 4 5 5 7 11 11 11 10 9 12 12 12 13 13 14 15 16 17 16
-6 -5 -4 -4 -4 -3 -2 -1 1 2 3 8 1 1 1 2 3 3 2 2 2 1 2 3 6 9 9 8 5 7 10 12 12 12 12 13 13 14
-7 -6 -5 -5 -5 -5 -4 -3 -2 -2 -1 -1 -1 -2 -1 -1 1 1 1 1 0 -0 -0 -1 -1 2 3 6 8 5 6 8 10 9 11 12 12 11
-8 -7 -6 -5 -5 -5 -5 -5 -4 -4 -4 -3 -4 -4 -4 -3 -2 -1 1 -0 -1 -1 -1 -2 -1 -2 -1 -0 2 1 1 3 6 7 8 9 7 9
-9 -8 -7 -6 -6 -6 -6 -6 -6 -5 -5 -5 -5 -5 -6 -5 -5 -3 -2 -0 -2 -3 -3 -2 -2 -2 -2 -2 -2 1 -1 -1 -0 1 2 4 4 3
-9 -9 -8 -8 -8 -7 -7 -6 -7 -7 -7 -6 -6 -6 -7 -7 -6 -5 -4 -3 -4 -4 -3 -3 -3 -3 -3 -3 -3 -3 -3 -3 -3 -1 -1 0 2 2
-9 -9 -9 -9 -9 -9 -9 -9 -8 -8 -8 -8 -8 -8 -8 -8 -7 -6 -5 -6 -7 -8 -4 -5 -5 -4 -4 -4 -4 -4 -4 -3 -4 -3 -3 -2 -1 1
-9 -9 -9 -9 -9 -10 -10 -10 -10 -10 -9 -9 -9 -9 -8 -8 -8 -7 -6 -6 -7 -8 -6 -7 -8 -5 -4 -4 -5 -5 -4 -5 -4 -4 -4 -3 -3 -1
-8 -8 -9 -9 -9 -10 -10 -10 -10 -10 -11 -10 -10 -10 -10 -9 -8 -8 -9 -7 -8 -9 -8 -7 -8 -7 -5 -5 -5 -6 -6 -6 -6 -5 -5 -5 -4 -3
-9 -8 -9 -9 -9 -10 -11 -11 -12 -12 -11 -10 -10 -9 -9 -9 -9 -9 -10 -10 -9 -10 -10 -8 -9 -8 -8 -6 -6 -7 -6 -7 -7 -5 -6 -5 -5 -4
-9 -9 -9 -9 -10 -10 -11 -12 -12 -12 -12 -12 -12 -12 -12 -11 -11 -11 -11 -11 -11 -11 -11 -9 -10 -10 -9 -8 -8 -8 -8 -8 -8 -6 -6 -6 -6 -5
-9 -9 -10 -10 -10 -11 -12 -12 -13 -12 -13 -13 -13 -13 -13 -13 -13 -12 -11 -11 -11 -12 -11 -11 -12 -12 -12 -10 -11 -10 -10 -9 -9 -9 -8 -7 -6 -6
-10 -10 -11 -12 -12 -12 -12 -13 -13 -13 -13 -14 -14 -14 -13 -14 -13 -13 -12 -12 -12 -12 -13 -13 -13 -13 -13 -13 -12 -12 -12 -10 -10 -11 -10 -9 -8 -7
-10 -11 -12 -12 -13 -13 -13 -13 -14 -14 -14 -14 -14 -14 -14 -14 -14 -14 -14 -14 -14 -14 -14 -14 -14 -14 -14 -13 -12 -13 -13 -13 -12 -12 -11 -10 -9 -8
-11 -12 -13 -13 -14 -14 -14 -14 -14 -15 -15 -15 -15 -15 -15 -15 -15 -15 -15 -15 -15 -15 -15 -15 -15 -15 -14 -14 -13 -14 -14 -14 -13 -13 -12 -12 -11 -10
-12 -14 -14 -15 -15 -16 -16 -16 -16 -16 -16 -16 -16 -16 -16 -16 -15 -15 -16 -16 -15 -15 -15 -15 -15 -16 -15 -15 -14 -14 -15 -14 -14 -14 -13 -12 -12 -11
-14 -15 -15 -16 -16 -17 -17 -17 -17 -17 -16 -17 -17 -17 -16 -16 -16 -16 -16 -16 -16 -16 -16 -16 -16 -16 -17 -17 -16 -15 -15 -15 -14 -14 -14 -13 -13 -12
-15 -16 -16 -17 -17 -18 -18 -18 -18 -18 -18 -18 -18 -18 -18 -17 -17 -17 -17 -16 -16 -16 -16 -16 -16 -16 -16 -17 -16 -16 -15 -15 -15 -14 -14 -13 -12 -11
-16 -17 -17 -18 -18 -19 -19 -19 -19 -19 -19 -19 -19 -19 -19 -18 -18 -17 -17 -17 -17 -17 -17 -17 -17 -17 -17 -17 -17 -17 -16 -15 -15 -14 -13 -13 -12 -11
-17 -18 -18 -19 -19 -19 -20 -20 -20 -20 -20 -20 -20 -20 -20 -19 -19 -18 -18 -18 -17 -17 -17 -17 -17 -17 -17 -17 -17 -17 -17 -16 -15 -14 -14 -13 -12 -11
-18 -18 -19 -19 -20 -20 -20 -21 -21 -21 -21 -21 -21 -21 -20 -20 -19 -19 -18 -18 -18 -18 -18 -18 -18 -18 -18 -17 -17 -17 -17 -16 -17 -15 -14 -13 -12 -11